sat.trackr.live / text

‹ back to catalog

2026-052E

NORAD 68202 · 2026-052E

PAYLOAD ACTIVE UNKNOWN

§ Identity

Operator
Country
PRC
Launch date
2026-03-16
Launch site
JSC
Launch vehicle
Mass (kg)
RCS (m²)

External: N2YO · Heavens-Above · Gunter

§ Orbital elements

Epoch: 2026-09-20T04:19:53.130720Z

Period
95.22 min
Inclination
97.5253°
Eccentricity
0.0010769
Mean motion
15.12294064 rev/d
Perigee alt
521.8 km
Apogee alt
536.6 km
Semi-major
6,907.3 km
B*
1.8044e-4
RAAN
336.6660°
Arg perigee
353.9375°
Mean anomaly
6.1723°
Rev number
2,840

§ Raw data

2026-052E1 68202U 26052E   26263.18047605  .00003062  00000+0  18044-3 0  99932 68202  97.5253 336.6660 0010769 353.9375   6.1723 15.12294064 28406

JSON: /api/v1/satellites/68202 · /tle

For live sub-satellite position, see the globe view (requires WebGL).

§ Visibility from observer

Set your observer location to see the next 7 days of passes ≥ 10°. The values pass through the URL so the page stays shareable.

No JS? Fill the form by hand. The geolocation button needs JavaScript.

§ Radio — SatNOGS DB

ModeDescriptionDownlinkUplink
UNKNOWN UHF Downlink 401.050 MHz

1 transmitter · refreshed weekly from db.satnogs.org